Time,TemperatureF,DewpointF,PressureIn,WindDirection,WindDirectionDegrees,WindSpeedMPH,WindSpeedGustMPH,Humidity,HourlyPrecipIn,Conditions,Clouds,dailyrainin,SoftwareType,DateUTC
2013-07-01 00:01:00,63.0,55.0,29.96,East,86,0.0,1.0,76,0.00,,,0.00,,2013-07-01 04:01:00,
2013-07-01 00:11:00,63.0,51.0,29.96,East,84,0.0,1.0,65,0.00,,,0.00,,2013-07-01 04:11:00,
2013-07-01 00:22:00,63.0,51.0,29.96,East,84,0.0,1.0,65,0.00,,,0.00,,2013-07-01 04:22:00,
2013-07-01 00:32:00,63.0,51.0,29.96,East,84,0.0,1.0,65,0.00,,,0.00,,2013-07-01 04:32:00,
2013-07-01 00:43:00,63.0,51.0,29.96,East,84,0.0,1.0,65,0.00,,,0.00,,2013-07-01 04:43:00,
2013-07-01 01:02:00,61.0,47.0,29.96,East,82,0.0,1.0,59,0.00,,,0.00,,2013-07-01 05:02:00,
2013-07-01 01:11:00,61.0,46.0,29.96,ESE,105,0.0,2.0,58,0.00,,,0.00,,2013-07-01 05:11:00,
2013-07-01 01:22:00,60.0,46.0,29.96,ESE,104,0.0,1.0,60,0.00,,,0.00,,2013-07-01 05:22:00,
2013-07-01 01:33:00,60.0,46.0,29.96,ESE,104,0.0,1.0,60,0.00,,,0.00,,2013-07-01 05:33:00,
2013-07-01 01:42:00,60.0,47.0,29.96,East,92,0.0,1.0,61,0.00,,,0.00,,2013-07-01 05:42:00,
2013-07-01 01:52:00,60.0,48.0,29.96,East,91,0.0,0.0,65,0.00,,,0.00,,2013-07-01 05:52:00,
2013-07-01 02:02:00,60.0,48.0,29.96,East,91,0.0,0.0,65,0.00,,,0.00,,2013-07-01 06:02:00,
2013-07-01 02:12:00,59.0,47.0,29.96,East,92,0.0,1.0,65,0.00,,,0.00,,2013-07-01 06:12:00,
2013-07-01 02:24:00,59.0,48.0,29.96,East,89,0.0,1.0,66,0.00,,,0.00,,2013-07-01 06:24:00,
2013-07-01 02:33:00,59.0,48.0,29.96,East,89,0.0,1.0,66,0.00,,,0.00,,2013-07-01 06:33:00,
2013-07-01 02:43:00,59.0,47.0,29.96,East,89,0.0,1.0,65,0.00,,,0.00,,2013-07-01 06:43:00,
2013-07-01 02:53:00,59.0,48.0,29.96,East,83,0.0,1.0,66,0.00,,,0.00,,2013-07-01 06:53:00,
2013-07-01 03:01:00,59.0,48.0,29.96,East,83,0.0,1.0,66,0.00,,,0.00,,2013-07-01 07:01:00,
2013-07-01 03:11:00,59.0,49.0,29.95,ENE,72,0.0,1.0,69,0.00,,,0.00,,2013-07-01 07:11:00,
2013-07-01 03:22:00,59.0,49.0,29.96,East,87,0.0,1.0,69,0.00,,,0.00,,2013-07-01 07:22:00,
2013-07-01 03:33:00,59.0,49.0,29.96,East,87,0.0,1.0,69,0.00,,,0.00,,2013-07-01 07:33:00,
2013-07-01 03:43:00,58.0,48.0,29.96,East,85,0.0,1.0,70,0.00,,,0.00,,2013-07-01 07:43:00,
2013-07-01 03:53:00,58.0,49.0,29.96,East,85,0.0,1.0,72,0.00,,,0.00,,2013-07-01 07:53:00,
2013-07-01 04:01:00,58.0,49.0,29.96,East,85,0.0,1.0,72,0.00,,,0.00,,2013-07-01 08:01:00,
2013-07-01 04:12:00,58.0,50.0,29.96,East,85,0.0,0.0,74,0.00,,,0.00,,2013-07-01 08:12:00,
2013-07-01 04:22:00,58.0,50.0,29.96,NNE,27,0.0,0.0,74,0.00,,,0.00,,2013-07-01 08:22:00,
2013-07-01 04:33:00,58.0,50.0,29.96,NNE,27,0.0,0.0,74,0.00,,,0.00,,2013-07-01 08:33:00,
2013-07-01 04:43:00,58.0,50.0,29.96,East,85,0.0,2.0,75,0.00,,,0.00,,2013-07-01 08:43:00,
2013-07-01 04:52:00,58.0,50.0,29.96,East,80,0.0,0.0,75,0.00,,,0.00,,2013-07-01 08:52:00,
2013-07-01 05:02:00,58.0,50.0,29.96,East,80,0.0,0.0,75,0.00,,,0.00,,2013-07-01 09:02:00,
2013-07-01 05:12:00,58.0,50.0,29.97,NE,56,0.0,4.0,76,0.00,,,0.00,,2013-07-01 09:12:00,
2013-07-01 05:22:00,58.0,50.0,29.97,NNE,16,0.0,1.0,76,0.00,,,0.00,,2013-07-01 09:22:00,
2013-07-01 05:34:00,58.0,50.0,29.97,NNE,16,0.0,1.0,76,0.00,,,0.00,,2013-07-01 09:34:00,
2013-07-01 05:43:00,58.0,50.0,29.98,East,84,0.0,2.0,75,0.00,,,0.00,,2013-07-01 09:43:00,
2013-07-01 05:53:00,57.0,50.0,29.98,East,84,0.0,1.0,77,0.00,,,0.00,,2013-07-01 09:53:00,
2013-07-01 06:03:00,57.0,50.0,29.98,East,84,0.0,1.0,77,0.00,,,0.00,,2013-07-01 10:03:00,
2013-07-01 06:11:00,57.0,50.0,29.98,East,79,0.0,1.0,77,0.00,,,0.00,,2013-07-01 10:11:00,
2013-07-01 06:22:00,57.0,50.0,29.98,East,80,0.0,1.0,77,0.00,,,0.00,,2013-07-01 10:22:00,
2013-07-01 06:33:00,57.0,50.0,29.98,East,80,0.0,1.0,77,0.00,,,0.00,,2013-07-01 10:33:00,
2013-07-01 06:43:00,57.0,50.0,29.98,East,82,0.0,1.0,78,0.00,,,0.00,,2013-07-01 10:43:00,
2013-07-01 06:52:00,57.0,51.0,29.98,East,84,0.0,1.0,79,0.00,,,0.00,,2013-07-01 10:52:00,
2013-07-01 07:02:00,57.0,51.0,29.98,East,84,0.0,1.0,79,0.00,,,0.00,,2013-07-01 11:02:00,
2013-07-01 07:11:00,57.0,50.0,29.99,East,90,0.0,2.0,78,0.00,,,0.00,,2013-07-01 11:11:00,
2013-07-01 07:22:00,57.0,50.0,29.98,East,82,0.0,1.0,78,0.00,,,0.00,,2013-07-01 11:22:00,
2013-07-01 07:33:00,57.0,50.0,29.98,East,82,0.0,1.0,78,0.00,,,0.00,,2013-07-01 11:33:00,
2013-07-01 07:43:00,58.0,50.0,29.98,East,99,0.0,3.0,76,0.00,,,0.00,,2013-07-01 11:43:00,
2013-07-01 07:52:00,58.0,51.0,29.98,East,93,0.0,2.0,78,0.00,,,0.00,,2013-07-01 11:52:00,
2013-07-01 08:01:00,58.0,51.0,29.98,East,93,0.0,2.0,78,0.00,,,0.00,,2013-07-01 12:01:00,
2013-07-01 08:11:00,58.0,51.0,29.99,East,92,0.0,1.0,77,0.00,,,0.00,,2013-07-01 12:11:00,
2013-07-01 08:22:00,59.0,51.0,29.99,East,92,1.0,2.0,76,0.00,,,0.00,,2013-07-01 12:22:00,
2013-07-01 08:33:00,59.0,51.0,29.99,East,92,1.0,2.0,76,0.00,,,0.00,,2013-07-01 12:33:00,
2013-07-01 08:43:00,59.0,51.0,30.00,East,101,0.0,2.0,75,0.00,,,0.00,,2013-07-01 12:43:00,
2013-07-01 08:53:00,60.0,52.0,30.00,East,99,0.0,1.0,76,0.00,,,0.00,,2013-07-01 12:53:00,
2013-07-01 09:02:00,60.0,52.0,30.00,East,99,0.0,1.0,76,0.00,,,0.00,,2013-07-01 13:02:00,
2013-07-01 09:12:00,60.0,53.0,30.00,East,98,0.0,0.0,77,0.00,,,0.00,,2013-07-01 13:12:00,
2013-07-01 09:23:00,61.0,53.0,30.00,NNE,32,0.0,1.0,75,0.00,,,0.00,,2013-07-01 13:23:00,
2013-07-01 09:33:00,61.0,53.0,30.00,NNE,32,0.0,1.0,75,0.00,,,0.00,,2013-07-01 13:33:00,
2013-07-01 09:53:00,62.0,54.0,30.01,NE,39,0.0,1.0,76,0.00,,,0.00,,2013-07-01 13:53:00,
2013-07-01 10:01:00,62.0,54.0,30.01,NE,39,0.0,1.0,76,0.00,,,0.00,,2013-07-01 14:01:00,
2013-07-01 10:11:00,62.0,54.0,30.01,North,359,0.0,1.0,75,0.00,,,0.00,,2013-07-01 14:11:00,
2013-07-01 10:34:00,63.0,55.0,30.00,East,96,0.0,3.0,75,0.00,,,0.00,,2013-07-01 14:34:00,
2013-07-01 10:43:00,63.0,55.0,30.01,NNE,13,0.0,3.0,75,0.00,,,0.00,,2013-07-01 14:43:00,
2013-07-01 11:02:00,64.0,56.0,30.01,East,100,0.0,2.0,76,0.00,,,0.00,,2013-07-01 15:02:00,
2013-07-01 11:12:00,64.0,56.0,30.00,ENE,72,0.0,2.0,76,0.00,,,0.00,,2013-07-01 15:12:00,
2013-07-01 11:34:00,65.0,58.0,30.01,NNE,20,0.0,2.0,77,0.00,,,0.00,,2013-07-01 15:34:00,
2013-07-01 11:43:00,65.0,57.0,30.02,ESE,108,1.0,4.0,76,0.00,,,0.00,,2013-07-01 15:43:00,
2013-07-01 12:01:00,65.0,57.0,30.02,East,89,2.0,4.0,76,0.00,,,0.00,,2013-07-01 16:01:00,
2013-07-01 12:11:00,65.0,58.0,30.02,NNW,340,0.0,4.0,77,0.00,,,0.00,,2013-07-01 16:11:00,
2013-07-01 12:33:00,65.0,58.0,30.02,ENE,65,0.0,2.0,78,0.00,,,0.00,,2013-07-01 16:33:00,
2013-07-01 12:44:00,66.0,58.0,30.03,East,92,1.0,6.0,75,0.00,,,0.00,,2013-07-01 16:44:00,
2013-07-01 12:53:00,66.0,58.0,30.03,East,92,1.0,6.0,75,0.00,,,0.00,,2013-07-01 16:53:00,
2013-07-01 13:02:00,66.0,58.0,30.03,ENE,77,1.0,5.0,76,0.00,,,0.00,,2013-07-01 17:02:00,
2013-07-01 13:12:00,66.0,59.0,30.03,East,92,1.0,3.0,77,0.00,,,0.00,,2013-07-01 17:12:00,
2013-07-01 13:34:00,66.0,59.0,30.04,East,82,0.0,2.0,77,0.00,,,0.00,,2013-07-01 17:34:00,
2013-07-01 13:43:00,66.0,58.0,30.04,East,86,0.0,3.0,75,0.00,,,0.00,,2013-07-01 17:43:00,
2013-07-01 14:02:00,65.0,57.0,30.04,East,91,0.0,2.0,76,0.00,,,0.00,,2013-07-01 18:02:00,
2013-07-01 14:11:00,66.0,58.0,30.04,East,81,0.0,6.0,75,0.00,,,0.00,,2013-07-01 18:11:00,
2013-07-01 14:33:00,66.0,57.0,30.05,East,101,0.0,4.0,74,0.00,,,0.00,,2013-07-01 18:33:00,
2013-07-01 15:02:00,65.0,57.0,30.05,East,84,1.0,5.0,75,0.00,,,0.00,,2013-07-01 19:02:00,
2013-07-01 15:11:00,64.0,57.0,30.05,East,98,0.0,2.0,78,0.00,,,0.00,,2013-07-01 19:11:00,
2013-07-01 15:33:00,65.0,57.0,30.05,East,91,1.0,5.0,76,0.00,,,0.00,,2013-07-01 19:33:00,
2013-07-01 15:44:00,65.0,57.0,30.06,East,85,0.0,2.0,75,0.00,,,0.00,,2013-07-01 19:44:00,
2013-07-01 15:52:00,65.0,57.0,30.06,East,85,0.0,2.0,75,0.00,,,0.00,,2013-07-01 19:52:00,
2013-07-01 16:02:00,65.0,58.0,30.05,East,83,0.0,2.0,77,0.00,,,0.00,,2013-07-01 20:02:00,
2013-07-01 16:22:00,65.0,58.0,30.05,East,84,0.0,2.0,78,0.00,,,0.00,,2013-07-01 20:22:00,
2013-07-01 16:34:00,65.0,57.0,30.04,East,80,0.0,2.0,76,0.00,,,0.00,,2013-07-01 20:34:00,
2013-07-01 16:43:00,65.0,57.0,30.04,East,79,0.0,2.0,76,0.00,,,0.00,,2013-07-01 20:43:00,
2013-07-01 16:52:00,65.0,57.0,30.04,East,79,0.0,2.0,76,0.00,,,0.00,,2013-07-01 20:52:00,
2013-07-01 17:02:00,65.0,57.0,30.03,ENE,75,0.0,3.0,75,0.00,,,0.00,,2013-07-01 21:02:00,
2013-07-01 17:11:00,65.0,58.0,30.04,East,96,0.0,2.0,77,0.00,,,0.00,,2013-07-01 21:11:00,
2013-07-01 17:34:00,64.0,57.0,30.04,East,93,0.0,2.0,78,0.00,,,0.00,,2013-07-01 21:34:00,
2013-07-01 17:43:00,64.0,57.0,30.05,East,94,0.0,1.0,78,0.00,,,0.00,,2013-07-01 21:43:00,
2013-07-01 17:53:00,64.0,57.0,30.05,East,94,0.0,1.0,78,0.00,,,0.00,,2013-07-01 21:53:00,
2013-07-01 18:01:00,64.0,58.0,30.05,ESE,103,0.0,3.0,80,0.00,,,0.00,,2013-07-01 22:01:00,
2013-07-01 18:24:00,63.0,58.0,30.05,East,99,0.0,1.0,84,0.00,,,0.00,,2013-07-01 22:24:00,
2013-07-01 18:43:00,62.0,59.0,30.05,East,93,0.0,1.0,90,0.01,,,0.01,,2013-07-01 22:43:00,
2013-07-01 18:53:00,62.0,59.0,30.05,East,93,0.0,1.0,90,0.01,,,0.01,,2013-07-01 22:53:00,
2013-07-01 19:01:00,62.0,59.0,30.05,ESE,103,0.0,1.0,91,0.01,,,0.01,,2013-07-01 23:01:00,
2013-07-01 19:11:00,62.0,59.0,30.06,East,86,0.0,2.0,90,0.01,,,0.01,,2013-07-01 23:11:00,
2013-07-01 19:22:00,62.0,59.0,30.06,East,86,0.0,2.0,90,0.01,,,0.01,,2013-07-01 23:22:00,
2013-07-01 19:33:00,62.0,59.0,30.06,East,80,0.0,2.0,90,0.00,,,0.01,,2013-07-01 23:33:00,
2013-07-01 19:44:00,62.0,59.0,30.06,ENE,77,0.0,2.0,90,0.00,,,0.01,,2013-07-01 23:44:00,
2013-07-01 19:53:00,62.0,59.0,30.06,ENE,77,0.0,2.0,90,0.00,,,0.01,,2013-07-01 23:53:00,
2013-07-01 20:01:00,62.0,59.0,30.06,East,101,0.0,2.0,90,0.00,,,0.01,,2013-07-02 00:01:00,
2013-07-01 20:12:00,62.0,59.0,30.06,North,6,0.0,1.0,91,0.00,,,0.01,,2013-07-02 00:12:00,
2013-07-01 20:22:00,62.0,59.0,30.06,North,6,0.0,1.0,91,0.00,,,0.01,,2013-07-02 00:22:00,
2013-07-01 20:34:00,62.0,60.0,30.06,East,90,0.0,2.0,92,0.00,,,0.01,,2013-07-02 00:34:00,
2013-07-01 20:53:00,62.0,60.0,30.07,East,85,0.0,3.0,92,0.00,,,0.01,,2013-07-02 00:53:00,
2013-07-01 21:01:00,62.0,59.0,30.07,East,88,0.0,2.0,91,0.00,,,0.01,,2013-07-02 01:01:00,
2013-07-01 21:11:00,62.0,59.0,30.07,East,88,0.0,2.0,91,0.00,,,0.01,,2013-07-02 01:11:00,
2013-07-01 21:22:00,62.0,59.0,30.08,East,85,0.0,2.0,90,0.00,,,0.01,,2013-07-02 01:22:00,
2013-07-01 21:33:00,62.0,59.0,30.08,East,85,0.0,2.0,90,0.00,,,0.01,,2013-07-02 01:33:00,
2013-07-01 21:53:00,61.0,58.0,30.08,East,90,1.0,3.0,90,0.00,,,0.01,,2013-07-02 01:53:00,
2013-07-01 22:22:00,61.0,58.0,30.08,East,85,0.0,3.0,91,0.00,,,0.01,,2013-07-02 02:22:00,
2013-07-01 22:34:00,61.0,59.0,30.08,East,95,0.0,2.0,92,0.00,,,0.01,,2013-07-02 02:34:00,
2013-07-01 22:53:00,61.0,59.0,30.08,NE,54,0.0,4.0,92,0.00,,,0.01,,2013-07-02 02:53:00,
2013-07-01 23:12:00,61.0,58.0,30.08,East,87,0.0,3.0,91,0.00,,,0.01,,2013-07-02 03:12:00,
2013-07-01 23:24:00,60.0,57.0,30.08,East,88,0.0,2.0,90,0.00,,,0.01,,2013-07-02 03:24:00,
2013-07-01 23:43:00,60.0,57.0,30.07,ESE,106,1.0,3.0,90,0.00,,,0.01,,2013-07-02 03:43:00,
2013-07-01 23:53:00,60.0,57.0,30.07,ENE,77,0.0,4.0,89,0.00,,,0.01,,2013-07-02 03:53:00,